Погода в Байны

Россия / Свердловская область     56°41′46″N   62°08′27″E
темп.,
°C
ветер,
м/с
пор.,
м/с
влажн.,
%
обл.,
%
осадки,
мм/ч
давл.,
гПа
погр.,
м
24 января, пн
пн2423:00−15юз3494100 0.0 103847
02:00−15юз3594100 0.0 103867
05:00−15ююз3595100 0.0 103764
08:00−13ююз3695100 0.0 1037110
11:00−11ююз3789100 0.0 1036172
14:00−8юз3685100 0.0 1035192
17:00−9юз3494100 0.0 103446
20:00−7зюз3792100 0.0 1033178
25 января, вт
вт2523:00−11з38949 0.1 1033106
02:00−15зюз3796100 0.0 103282
05:00−13зюз41093100 0.0 1031185
08:00−8з51487100 0.0 1028466
11:00−7з71682100 0.0 1027524
14:00−6з71581100 0.0 1026579
17:00−6з61380100 0.0 1026458
20:00−9з51383100 0.0 1026348
26 января, ср
ср2623:00−11з41090100 0.0 1026194
02:00−13зюз3791100 0.0 102797
05:00−15зюз2490100 0.0 102740
08:00−17зюз368990 0.0 102867
11:00−14зюз378717 0.0 1027107
14:00−9юз368770 0.0 1026173
17:00−13ю369080 0.0 102764
20:00−15ю3693100 0.0 102775
27 января, чт
чт2723:00−16ю3693100 0.0 102578
02:00−16ююв2494100 0.0 102458
05:00−15ю3109199 0.0 1022183
08:00−13ююз3892100 0.0 1022168
11:00−10ююз379076 0.0 1022142
14:00−6ююз4109019 0.0 1022333
17:00−10ююз35955 0.0 102243
20:00−12юз3594100 0.0 102358
28 января, пт
пт2823:00−12юз3494100 0.0 102444
02:00−12ююз2295100 0.0 102329
05:00−9ююв2495100 0.0 102297
08:00−8ююв3796100 0.2 1021189
11:00−8ююв3892100 0.2 1020225
14:00−7ю3789100 0.0 1020283
17:00−9ююв359398 0.0 102098
20:00−11ююв379487 0.0 1019119